This is the latest recevied weather packets stored in our database for station/object SQ9NFI-4. If no packets are shown the sender has not sent any weather packets the latest 10 day(s).
| Time | Temp. | Humidity | Pressure | Rain* | Wind** | Luminosity | Snow |
|---|---|---|---|---|---|---|---|
| 1777481716 | 7.22° C | 39% | 1028.1 hPa | 0 mm | - | 40 W/m² | - |
| 1777481416 | 7.78° C | 40% | 1028.1 hPa | 0 mm | - | 49 W/m² | - |
| 1777481116 | 7.78° C | 39% | 1028.1 hPa | 0 mm | - | 57 W/m² | - |
| 1777480816 | 7.78° C | 39% | 1028.1 hPa | 0 mm | - | 58 W/m² | - |
| 1777480516 | 7.78° C | 39% | 1027.8 hPa | 0 mm | - | 62 W/m² | - |
| 1777480215 | 8.33° C | 39% | 1027.8 hPa | 0 mm | - | 67 W/m² | - |
| 1777479915 | 7.78° C | 39% | 1027.8 hPa | 0 mm | - | 75 W/m² | - |
| 1777479615 | 7.78° C | 39% | 1028.1 hPa | 0 mm | - | 50 W/m² | - |
| 1777479315 | 7.78° C | 38% | 1028.1 hPa | 0 mm | - | 94 W/m² | - |
| 1777479015 | 8.33° C | 37% | 1027.8 hPa | 0 mm | - | 108 W/m² | - |
| 1777478415 | 7.78° C | 38% | 1027.8 hPa | 0 mm | - | 69 W/m² | - |
| 1777478116 | 7.22° C | 40% | 1027.8 hPa | 0 mm | - | 98 W/m² | - |
| 1777477816 | 7.78° C | 39% | 1027.8 hPa | 0 mm | - | 136 W/m² | - |
| 1777477516 | 7.22° C | 39% | 1027.4 hPa | 0 mm | - | 50 W/m² | - |
| 1777477216 | 8.33° C | 36% | 1027.4 hPa | 0 mm | - | 58 W/m² | - |
| 1777476916 | 8.89° C | 36% | 1027.4 hPa | 0 mm | - | 191 W/m² | - |
| 1777476616 | 9.44° C | 36% | 1027.4 hPa | 0 mm | - | 213 W/m² | - |
| 1777476316 | 9.44° C | 35% | 1027.4 hPa | 0 mm | - | 226 W/m² | - |
| 1777476016 | 9.44° C | 34% | 1027.4 hPa | 0 mm | - | 256 W/m² | - |
| 1777475716 | 9.44° C | 35% | 1027.4 hPa | 0 mm | - | 264 W/m² | - |
| 1777475416 | 8.89° C | 34% | 1027.4 hPa | 0 mm | - | 249 W/m² | - |
| 1777475116 | 8.89° C | 34% | 1027.4 hPa | 0 mm | - | 81 W/m² | - |
| 1777474816 | 9.44° C | 36% | 1026.8 hPa | 0 mm | - | 304 W/m² | - |
| 1777474516 | 9.44° C | 34% | 1026.8 hPa | 0 mm | - | 316 W/m² | - |
| 1777474216 | 9.44° C | 33% | 1026.8 hPa | 0 mm | - | 328 W/m² | - |
* Rain latest hour (hover to see other rain measurements)
** Current wind speed in m/s (hover to see current wind gust speed)